Previsão horária em Barshatas

Hoje, 27 Outubro, Terça-feira

Tempo Temperatura Precipitação Vento Pressão Humidade
00:00 +3°C° 0 mm 9 m/s 702 mmHg 53%
01:00 +3°C° 0 mm 10 m/s 702 mmHg 53%
02:00 +3°C° 0 mm 10 m/s 701 mmHg 53%
03:00 +3°C° 0 mm 10 m/s 701 mmHg 56%
04:00 +2°C° 0 mm 10 m/s 700 mmHg 59%
05:00 +2°C° 0 mm 10 m/s 700 mmHg 61%
06:00 +3°C° 0 mm 10 m/s 700 mmHg 57%
07:00 +3°C° 0 mm 10 m/s 699 mmHg 54%
08:00 +5°C° 0 mm 10 m/s 699 mmHg 50%
09:00 +7°C° 0 mm 11 m/s 699 mmHg 43%
10:00 +10°C° 0 mm 12 m/s 699 mmHg 36%
11:00 +13°C° 0 mm 13 m/s 699 mmHg 30%
12:00 +13°C° 0 mm 13 m/s 699 mmHg 30%
13:00 +14°C° 0 mm 13 m/s 698 mmHg 30%
14:00 +14°C° 0 mm 14 m/s 698 mmHg 30%
15:00 +13°C° 0 mm 12 m/s 697 mmHg 33%
16:00 +11°C° 0 mm 11 m/s 697 mmHg 37%
17:00 +11°C° 0 mm 8 m/s 697 mmHg 40%
18:00 +9°C° 0 mm 8 m/s 698 mmHg 43%
19:00 +7°C° 0 mm 8 m/s 698 mmHg 46%
20:00 +6°C° 0 mm 8 m/s 699 mmHg 49%
21:00 +4°C° 0 mm 7 m/s 699 mmHg 47%
22:00 +3°C° 0 mm 6 m/s 699 mmHg 44%
23:00 +1°C° 0 mm 5 m/s 700 mmHg 42%

Amanhã, 28 Outubro, Quarta-feira

Tempo Temperatura Precipitação Vento Pressão Humidade
00:00 0°C° 0 mm 5 m/s 700 mmHg 41%
01:00 -1°C° 0 mm 5 m/s 700 mmHg 41%
02:00 -2°C° 0 mm 5 m/s 701 mmHg 40%
03:00 -3°C° 0 mm 6 m/s 701 mmHg 42%
04:00 -4°C° 0 mm 6 m/s 702 mmHg 45%
05:00 -4°C° 0 mm 7 m/s 703 mmHg 47%
06:00 -4°C° 0 mm 7 m/s 703 mmHg 50%
07:00 -5°C° 0 mm 8 m/s 704 mmHg 53%
08:00 -5°C° 0 mm 8 m/s 705 mmHg 56%
09:00 -4°C° 0 mm 8 m/s 705 mmHg 55%
10:00 -2°C° 0 mm 7 m/s 706 mmHg 53%
11:00 -1°C° 0 mm 7 m/s 706 mmHg 51%
12:00 -1°C° 0 mm 7 m/s 707 mmHg 52%
13:00 -1°C° 0 mm 6 m/s 707 mmHg 52%
14:00 +1°C° 0 mm 6 m/s 707 mmHg 52%
15:00 0°C° 0 mm 5 m/s 708 mmHg 53%
16:00 0°C° 0 mm 4 m/s 708 mmHg 54%
17:00 +1°C° 0 mm 3 m/s 709 mmHg 55%
18:00 0°C° 0 mm 3 m/s 709 mmHg 59%
19:00 0°C° 0 mm 3 m/s 710 mmHg 63%
20:00 -1°C° 0 mm 3 m/s 710 mmHg 66%
21:00 -1°C° 0 mm 3 m/s 710 mmHg 67%
22:00 -1°C° 0 mm 3 m/s 711 mmHg 67%
23:00 -1°C° 0 mm 3 m/s 711 mmHg 67%

Depois de amanhã, 29 Outubro, Quinta-feira

Tempo Temperatura Precipitação Vento Pressão Humidade
00:00 -2°C° 0 mm 3 m/s 711 mmHg 73%
01:00 -2°C° 0 mm 3 m/s 711 mmHg 78%
02:00 -4°C° 0 mm 3 m/s 711 mmHg 83%
03:00 -4°C° 0 mm 3 m/s 712 mmHg 82%
04:00 -4°C° 0 mm 3 m/s 712 mmHg 81%
05:00 -3°C° 0 mm 2 m/s 712 mmHg 81%
06:00 -4°C° 0 mm 3 m/s 713 mmHg 77%
07:00 -4°C° 0 mm 3 m/s 713 mmHg 74%
08:00 -4°C° 0 mm 3 m/s 714 mmHg 71%
09:00 -2°C° 0 mm 3 m/s 714 mmHg 65%
10:00 -1°C° 0 mm 3 m/s 715 mmHg 59%
11:00 0°C° 0 mm 3 m/s 715 mmHg 53%
12:00 -1°C° 0 mm 4 m/s 715 mmHg 50%
13:00 0°C° 0 mm 4 m/s 715 mmHg 47%
14:00 +1°C° 0 mm 4 m/s 715 mmHg 44%
15:00 +1°C° 0 mm 3 m/s 715 mmHg 46%
16:00 +1°C° 0 mm 3 m/s 715 mmHg 49%
17:00 0°C° 0 mm 3 m/s 716 mmHg 51%
18:00 0°C° 0 mm 3 m/s 716 mmHg 53%
19:00 -1°C° 0 mm 3 m/s 716 mmHg 56%
20:00 -1°C° 0 mm 3 m/s 716 mmHg 58%
21:00 -1°C° 0 mm 3 m/s 716 mmHg 59%
22:00 -2°C° 0 mm 3 m/s 716 mmHg 60%
23:00 -2°C° 0 mm 3 m/s 716 mmHg 61%

30 Outubro, Sexta-feira

Tempo Temperatura Precipitação Vento Pressão Humidade
00:00 -2°C° 0 mm 3 m/s 716 mmHg 64%
01:00 -2°C° 0 mm 3 m/s 716 mmHg 66%
02:00 -4°C° 0 mm 3 m/s 715 mmHg 69%
03:00 -4°C° 0 mm 3 m/s 715 mmHg 70%
04:00 -4°C° 0 mm 3 m/s 715 mmHg 72%
05:00 -4°C° 0 mm 3 m/s 715 mmHg 74%
06:00 -2°C° 0 mm 3 m/s 715 mmHg 72%
07:00 -3°C° 0 mm 4 m/s 715 mmHg 70%
08:00 -2°C° 0 mm 4 m/s 715 mmHg 68%
09:00 -1°C° 0 mm 4 m/s 715 mmHg 62%
10:00 +1°C° 0 mm 5 m/s 715 mmHg 57%
11:00 +2°C° 0 mm 5 m/s 715 mmHg 52%
12:00 +3°C° 0 mm 5 m/s 715 mmHg 47%
13:00 +5°C° 0 mm 5 m/s 714 mmHg 43%
14:00 +6°C° 0 mm 5 m/s 714 mmHg 38%
15:00 +5°C° 0 mm 4 m/s 714 mmHg 40%
16:00 +4°C° 0 mm 3 m/s 714 mmHg 43%
17:00 +4°C° 0 mm 2 m/s 714 mmHg 45%
18:00 +3°C° 0 mm 2 m/s 714 mmHg 46%
19:00 +2°C° 0 mm 2 m/s 714 mmHg 48%
20:00 +2°C° 0 mm 2 m/s 714 mmHg 49%
21:00 +1°C° 0 mm 2 m/s 714 mmHg 51%
22:00 0°C° 0 mm 3 m/s 714 mmHg 54%
23:00 0°C° 0 mm 3 m/s 714 mmHg 57%

31 Outubro, Sábado

Tempo Temperatura Precipitação Vento Pressão Humidade
00:00 -1°C° 0 mm 3 m/s 714 mmHg 62%
01:00 -2°C° 0 mm 3 m/s 714 mmHg 66%
02:00 -2°C° 0 mm 3 m/s 714 mmHg 71%
03:00 -2°C° 0 mm 3 m/s 714 mmHg 73%
04:00 -4°C° 0 mm 3 m/s 714 mmHg 75%
05:00 -4°C° 0 mm 3 m/s 714 mmHg 78%
06:00 -4°C° 0 mm 3 m/s 715 mmHg 75%
07:00 -2°C° 0 mm 3 m/s 715 mmHg 72%
08:00 -1°C° 0 mm 3 m/s 715 mmHg 70%
09:00 +1°C° 0 mm 2 m/s 715 mmHg 63%
10:00 +3°C° 0 mm 2 m/s 715 mmHg 57%
11:00 +5°C° 0 mm 1 m/s 715 mmHg 51%
12:00 +5°C° 0 mm 2 m/s 715 mmHg 49%
13:00 +6°C° 0 mm 2 m/s 715 mmHg 46%
14:00 +6°C° 0 mm 2 m/s 715 mmHg 44%
15:00 +5°C° 0 mm 2 m/s 715 mmHg 50%
16:00 +3°C° 0 mm 3 m/s 715 mmHg 56%
17:00 +2°C° 0 mm 3 m/s 715 mmHg 63%
18:00 +1°C° 0 mm 3 m/s 714 mmHg 67%
19:00 0°C° 0 mm 3 m/s 714 mmHg 71%
20:00 -1°C° 0 mm 3 m/s 714 mmHg 75%
21:00 -1°C° 0 mm 3 m/s 714 mmHg 76%
22:00 -2°C° 0 mm 3 m/s 714 mmHg 77%
23:00 -2°C° 0 mm 3 m/s 714 mmHg 79%

1 Novembro, Domingo

Tempo Temperatura Precipitação Vento Pressão Humidade
00:00 -2°C° 0 mm 3 m/s 714 mmHg 79%
01:00 -4°C° 0 mm 3 m/s 714 mmHg 80%
02:00 -4°C° 0 mm 3 m/s 713 mmHg 80%
03:00 -4°C° 0 mm 3 m/s 713 mmHg 80%
04:00 -4°C° 0 mm 3 m/s 713 mmHg 79%
05:00 -4°C° 0 mm 3 m/s 713 mmHg 79%
06:00 -2°C° 0 mm 3 m/s 713 mmHg 74%
07:00 -2°C° 0 mm 3 m/s 713 mmHg 69%
08:00 -1°C° 0 mm 2 m/s 713 mmHg 64%
09:00 +2°C° 0 mm 2 m/s 713 mmHg 56%
10:00 +4°C° 0 mm 2 m/s 713 mmHg 48%
11:00 +7°C° 0 mm 1 m/s 713 mmHg 40%
12:00 +8°C° 0 mm 1 m/s 713 mmHg 37%
13:00 +9°C° 0 mm 1 m/s 712 mmHg 34%
14:00 +10°C° 0 mm 1 m/s 712 mmHg 30%
15:00 +8°C° 0 mm 1 m/s 712 mmHg 36%
16:00 +5°C° 0 mm 2 m/s 711 mmHg 42%
17:00 +4°C° 0 mm 2 m/s 711 mmHg 48%
18:00 +3°C° 0 mm 2 m/s 711 mmHg 51%
19:00 +2°C° 0 mm 2 m/s 711 mmHg 55%
20:00 +2°C° 0 mm 2 m/s 711 mmHg 58%
21:00 +1°C° 0 mm 2 m/s 710 mmHg 59%
22:00 +1°C° 0 mm 2 m/s 710 mmHg 60%
23:00 +1°C° 0 mm 1 m/s 710 mmHg 62%
Mostrar mais